| time (UTC) | temp C | wind direction | speed KPH | gust KPH | rain 1hr cm | rain 24hr cm | rain mn cm | humidity % | barometer mb |
| 20260507111504 | 9 | 225 | 0.0 | 0.0 | 0.00 | 0.30 | 0.13 | 1 | 1007.0 |
| 20260507110101 | 9 | 225 | 0.0 | 0.0 | 0.00 | 0.30 | 0.13 | 2 | 1007.0 |
| 20260507104555 | 8 | 225 | 0.0 | 0.0 | 0.03 | 0.30 | 0.13 | 5 | 1007.1 |
| 20260507103050 | 8 | 225 | 0.0 | 0.0 | 0.03 | 0.30 | 0.13 | 10 | 1006.7 |
| 20260507101600 | 8 | 225 | 0.0 | 0.0 | 0.05 | 0.30 | 0.13 | 12 | 1006.4 |
| 20260507100041 | 9 | 225 | 0.0 | 0.0 | 0.08 | 0.30 | 0.13 | 19 | 1006.5 |
| 20260507094539 | 9 | 225 | 0.0 | 0.0 | 0.05 | 0.28 | 0.10 | 25 | 1006.4 |
| 20260507093033 | 9 | 225 | 0.0 | 0.0 | 0.05 | 0.28 | 0.10 | 28 | 1006.6 |
| 20260507091548 | 10 | 225 | 0.0 | 0.0 | 0.03 | 0.25 | 0.08 | 25 | 1006.4 |
| 20260507090023 | 10 | 225 | 0.0 | 0.0 | 0.00 | 0.23 | 0.05 | 22 | 1006.7 |
| 20260507084523 | 10 | 225 | 0.0 | 0.0 | 0.00 | 0.23 | 0.05 | 25 | 1006.5 |
| 20260507083019 | 10 | 225 | 0.0 | 0.0 | 0.05 | 0.23 | 0.05 | 22 | 1006.4 |
| 20260507081510 | 11 | 225 | 0.0 | 0.0 | 0.05 | 0.23 | 0.05 | 21 | 1005.8 |
| 20260507080008 | 11 | 225 | 0.0 | 0.0 | 0.05 | 0.23 | 0.05 | 24 | 1006.2 |
| 20260507074508 | 11 | 225 | 0.0 | 0.0 | 0.05 | 0.23 | 0.05 | 39 | 1006.0 |
| 20260507073110 | 11 | 225 | 0.0 | 0.0 | 0.00 | 0.18 | 0.00 | 51 | 1006.0 |
| 20260507071558 | 11 | 225 | 0.0 | 0.0 | 0.00 | 0.18 | 0.00 | 54 | 1005.5 |
| 20260507070134 | 11 | 225 | 0.0 | 0.0 | 0.00 | 0.18 | 0.00 | 60 | 1005.7 |
| 20260507064549 | 11 | 225 | 0.0 | 0.0 | 0.00 | 0.18 | 0.00 | 62 | 1005.5 |
| 20260507063040 | 11 | 224 | 0.0 | 0.0 | 0.00 | 0.18 | 0.00 | 59 | 1005.4 |
| 20260507061536 | 12 | 220 | 0.0 | 0.0 | 0.00 | 0.18 | 0.00 | 19 | 1005.4 |
| 20260507060033 | 12 | 220 | 0.0 | 0.0 | 0.00 | 0.18 | 0.00 | 12 | 1005.4 |
| 20260507054527 | 12 | 220 | 0.0 | 0.0 | 0.00 | 0.18 | 0.00 | 14 | 1005.6 |
| 20260507053023 | 12 | 220 | 0.0 | 0.0 | 0.00 | 0.18 | 0.00 | 14 | 1005.8 |
| 20260507051518 | 13 | 219 | 0.0 | 0.0 | 0.00 | 0.18 | 0.00 | 12 | 1005.4 |
| 20260507050027 | 13 | 219 | 0.0 | 0.0 | 0.00 | 0.18 | 0.00 | 12 | 1005.5 |
| 20260507044525 | 13 | 219 | 0.0 | 0.0 | 0.00 | 0.18 | 0.00 | 1 | 1005.8 |
| 20260507043005 | 15 | 211 | 0.0 | 0.0 | 0.00 | 0.18 | 0.00 | 1 | 1005.4 |
| 20260507041605 | 15 | 210 | 0.0 | 0.0 | 0.03 | 0.18 | 0.00 | 1 | 1005.5 |
| 20260507040055 | 15 | 208 | 0.0 | 0.0 | 0.03 | 0.18 | 0.00 | 1 | 1005.7 |
| 20260507034552 | 15 | 208 | 0.0 | 0.0 | 0.03 | 0.18 | 0.18 | 1 | 1005.2 |
| 20260507033048 | 15 | 207 | 0.0 | 0.0 | 0.03 | 0.18 | 0.18 | 1 | 1005.3 |
| 20260507031543 | 15 | 202 | 0.0 | 0.0 | 0.00 | 0.15 | 0.15 | 1 | 1004.8 |
| 20260507030042 | 15 | 201 | 0.0 | 0.0 | 0.00 | 0.15 | 0.15 | 1 | 1004.7 |
| 20260507024535 | 15 | 201 | 0.0 | 0.0 | 0.00 | 0.15 | 0.15 | 1 | 1004.7 |
| 20260507023030 | 15 | 201 | 0.0 | 0.0 | 0.00 | 0.15 | 0.15 | 1 | 1004.8 |
| 20260507021525 | 15 | 191 | 0.0 | 0.0 | 0.00 | 0.15 | 0.15 | 1 | 1004.9 |
| 20260507020023 | 15 | 208 | 0.0 | 0.0 | 0.00 | 0.15 | 0.15 | 1 | 1004.7 |
| 20260507014517 | 15 | 209 | 0.0 | 0.0 | 0.00 | 0.15 | 0.15 | 1 | 1005.0 |
| 20260507013012 | 15 | 169 | 0.0 | 0.0 | 0.00 | 0.15 | 0.15 | 1 | 1004.9 |
| 20260507011508 | 15 | 167 | 0.0 | 0.0 | 0.00 | 0.15 | 0.15 | 1 | 1005.0 |
| 20260507010004 | 15 | 154 | 0.0 | 0.0 | 0.00 | 0.15 | 0.15 | 1 | 1005.0 |
| 20260507004559 | 15 | 103 | 0.0 | 0.0 | 0.00 | 0.15 | 0.15 | 1 | 1005.2 |
| 20260507003055 | 15 | 165 | 0.0 | 0.0 | 0.00 | 0.15 | 0.15 | 1 | 1005.0 |
| 20260507001553 | 15 | 150 | 0.0 | 0.0 | 0.03 | 0.15 | 0.15 | 1 | 1005.1 |
| 20260507000046 | 15 | 173 | 0.0 | 0.0 | 0.05 | 0.15 | 0.15 | 1 | 1004.8 |
| 20260506234541 | 15 | 153 | 0.0 | 0.0 | 0.05 | 0.15 | 0.15 | 1 | 1004.8 |
| 20260506233037 | 15 | 161 | 0.0 | 0.0 | 0.05 | 0.15 | 0.15 | 1 | 1004.7 |
| 20260506231533 | 15 | 171 | 0.0 | 0.0 | 0.03 | 0.13 | 0.13 | 1 | 1004.7 |
| 20260506230028 | 15 | 136 | 0.0 | 0.0 | 0.00 | 0.10 | 0.10 | 1 | 1004.8 |
| 20260506224524 | 15 | 167 | 0.0 | 0.0 | 0.00 | 0.10 | 0.10 | 1 | 1004.9 |
| 20260506223019 | 15 | 158 | 0.0 | 0.0 | 0.00 | 0.10 | 0.10 | 1 | 1004.9 |
| 20260506221514 | 16 | 192 | 0.0 | 0.0 | 0.00 | 0.10 | 0.10 | 1 | 1005.1 |
| 20260506220011 | 16 | 159 | 0.0 | 0.0 | 0.00 | 0.10 | 0.10 | 10 | 1005.1 |
| 20260506214507 | 16 | 170 | 0.0 | 0.0 | 0.00 | 0.10 | 0.10 | 22 | 1005.4 |
| 20260506213014 | 16 | 180 | 0.0 | 0.0 | 0.03 | 0.10 | 0.10 | 21 | 1005.6 |
| 20260506211509 | 16 | 181 | 0.0 | 0.0 | 0.05 | 0.10 | 0.10 | 22 | 1005.6 |
| 20260506210103 | 16 | 186 | 0.0 | 0.0 | 0.05 | 0.10 | 0.10 | 29 | 1005.6 |
| 20260506204601 | 16 | 186 | 0.0 | 0.0 | 0.08 | 0.10 | 0.10 | 38 | 1005.9 |
| 20260506203059 | 16 | 169 | 0.0 | 0.0 | 0.08 | 0.08 | 0.08 | 45 | 1005.9 |
| 20260506201617 | 17 | 114 | 0.0 | 0.0 | 0.05 | 0.05 | 0.05 | 58 | 1005.8 |
| 20260506200055 | 17 | 102 | 0.0 | 0.0 | 0.05 | 0.05 | 0.05 | 65 | 1005.6 |
| 20260506194555 | 18 | 111 | 0.0 | 0.0 | 0.03 | 0.03 | 0.03 | 72 | 1005.6 |
| 20260506193055 | 19 | 211 | 0.0 | 0.0 | 0.00 | 0.00 | 0.00 | 73 | 1006.0 |
| 20260506191552 | 20 | 175 | 0.0 | 0.0 | 0.00 | 0.00 | 0.00 | 69 | 1005.9 |
| 20260506190052 | 20 | 214 | 0.0 | 0.0 | 0.00 | 0.00 | 0.00 | 65 | 1005.9 |
| 20260506184554 | 21 | 261 | 0.0 | 0.0 | 0.00 | 0.00 | 0.00 | 62 | 1005.9 |
| 20260506183050 | 21 | 118 | 0.0 | 0.0 | 0.00 | 0.00 | 0.00 | 57 | 1005.9 |
| 20260506181551 | 22 | 226 | 0.0 | 0.0 | 0.00 | 0.00 | 0.00 | 57 | 1006.0 |
| 20260506180049 | 22 | 192 | 0.0 | 0.0 | 0.00 | 0.00 | 0.00 | 54 | 1006.1 |
| 20260506174547 | 22 | 222 | 0.0 | 0.0 | 0.00 | 0.00 | 0.00 | 55 | 1006.4 |
| 20260506173100 | 22 | 146 | 0.0 | 0.0 | 0.00 | 0.00 | 0.00 | 58 | 1006.5 |
| 20260506171553 | 22 | 143 | 0.0 | 0.0 | 0.00 | 0.00 | 0.00 | 59 | 1006.4 |
| 20260506170041 | 22 | 138 | 0.0 | 0.0 | 0.00 | 0.00 | 0.00 | 60 | 1006.6 |
| 20260506164540 | 22 | 170 | 0.0 | 0.0 | 0.00 | 0.00 | 0.00 | 59 | 1006.7 |
| 20260506163053 | 22 | 146 | 0.0 | 0.0 | 0.00 | 0.00 | 0.00 | 58 | 1006.9 |
| 20260506161542 | 22 | 88 | 0.0 | 0.0 | 0.00 | 0.00 | 0.00 | 58 | 1007.2 |
| 20260506160035 | 22 | 146 | 0.0 | 0.0 | 0.00 | 0.00 | 0.00 | 58 | 1007.4 |
| 20260506154537 | 22 | 170 | 0.0 | 0.0 | 0.00 | 0.00 | 0.00 | 57 | 1007.6 |
| 20260506153033 | 22 | 161 | 0.0 | 0.0 | 0.00 | 0.00 | 0.00 | 58 | 1007.9 |
| 20260506151528 | 22 | 182 | 0.0 | 0.0 | 0.00 | 0.00 | 0.00 | 59 | 1007.9 |
| 20260506150026 | 21 | 96 | 0.0 | 0.0 | 0.00 | 0.00 | 0.00 | 61 | 1008.2 |
| 20260506144523 | 21 | 99 | 0.0 | 0.0 | 0.00 | 0.00 | 0.00 | 63 | 1008.1 |
| 20260506143020 | 20 | 174 | 0.0 | 0.0 | 0.00 | 0.00 | 0.00 | 65 | 1008.1 |
| 20260506141516 | 20 | 186 | 0.0 | 0.0 | 0.00 | 0.00 | 0.00 | 68 | 1008.0 |
| 20260506140013 | 19 | 175 | 0.0 | 0.0 | 0.00 | 0.00 | 0.00 | 69 | 1008.2 |
| 20260506134509 | 18 | 157 | 0.0 | 0.0 | 0.00 | 0.00 | 0.00 | 71 | 1008.2 |
| 20260506133008 | 18 | 163 | 0.0 | 0.0 | 0.00 | 0.00 | 0.00 | 71 | 1008.7 |
| 20260506131506 | 18 | 187 | 0.0 | 0.0 | 0.00 | 0.00 | 0.00 | 72 | 1008.8 |
| 20260506130006 | 18 | 139 | 0.0 | 0.0 | 0.00 | 0.00 | 0.00 | 73 | 1008.7 |
| 20260506124503 | 17 | 129 | 0.0 | 0.0 | 0.00 | 0.00 | 0.00 | 73 | 1008.6 |
| 20260506123002 | 17 | 167 | 0.0 | 0.0 | 0.00 | 0.00 | 0.00 | 74 | 1009.1 |
| 20260506121500 | 17 | 107 | 0.0 | 0.0 | 0.00 | 0.00 | 0.00 | 73 | 1008.7 |
| 20260506120111 | 16 | 167 | 0.0 | 0.0 | 0.00 | 0.00 | 0.00 | 73 | 1009.0 |
| 20260506114623 | 16 | 150 | 0.0 | 0.0 | 0.00 | 0.00 | 0.00 | 73 | 1009.1 |
| 20260506113100 | 16 | 146 | 0.0 | 0.0 | 0.00 | 0.00 | 0.00 | 72 | 1009.4 |